TimeCDT,TemperatureF,Dew PointF,Humidity,Sea Level PressureIn,VisibilityMPH,Wind Direction,Wind SpeedMPH,Gust SpeedMPH,PrecipitationIn,Events,Conditions,WindDirDegrees,DateUTC
12:54 AM,66.9,59.0,76,30.18,10.0,South,8.1,-,N/A,,Overcast,180,2012-09-13 05:54:00
1:54 AM,66.9,59.0,76,30.19,10.0,South,6.9,-,N/A,,Overcast,190,2012-09-13 06:54:00
2:54 AM,66.9,59.0,76,30.19,10.0,South,8.1,-,N/A,,Overcast,190,2012-09-13 07:54:00
3:54 AM,66.0,60.1,81,30.20,10.0,South,5.8,-,N/A,,Overcast,180,2012-09-13 08:54:00
4:54 AM,64.0,60.1,87,30.20,10.0,South,4.6,-,N/A,,Scattered Clouds,190,2012-09-13 09:54:00
5:54 AM,64.0,60.1,87,30.21,10.0,South,4.6,-,N/A,,Clear,180,2012-09-13 10:54:00
6:54 AM,62.1,59.0,90,30.22,10.0,Calm,Calm,-,N/A,,Partly Cloudy,0,2012-09-13 11:54:00
7:54 AM,66.9,61.0,81,30.23,10.0,South,5.8,-,N/A,,Clear,180,2012-09-13 12:54:00
8:54 AM,71.1,63.0,75,30.24,10.0,South,9.2,-,N/A,,Scattered Clouds,180,2012-09-13 13:54:00
9:54 AM,73.9,63.0,68,30.24,10.0,SW,10.4,-,N/A,,Clear,220,2012-09-13 14:54:00
10:54 AM,78.1,64.0,62,30.23,10.0,West,3.5,-,N/A,,Clear,260,2012-09-13 15:54:00
11:54 AM,79.0,59.0,50,30.22,10.0,SW,5.8,-,N/A,,Mostly Cloudy,230,2012-09-13 16:54:00
12:54 PM,80.1,57.0,45,30.20,10.0,SSW,6.9,-,N/A,,Scattered Clouds,210,2012-09-13 17:54:00
1:54 PM,82.9,59.0,44,30.18,10.0,WNW,6.9,-,N/A,,Mostly Cloudy,290,2012-09-13 18:54:00
2:54 PM,81.0,57.0,44,30.17,10.0,WSW,10.4,-,N/A,,Mostly Cloudy,250,2012-09-13 19:54:00
3:54 PM,81.0,57.0,44,30.17,10.0,WSW,5.8,-,N/A,,Mostly Cloudy,250,2012-09-13 20:54:00
4:54 PM,75.9,60.1,58,30.18,10.0,NNW,23.0,28.8,N/A,,Mostly Cloudy,330,2012-09-13 21:54:00
5:01 PM,73.4,60.8,65,30.19,10.0,North,25.3,28.8,N/A,,Mostly Cloudy,350,2012-09-13 22:01:00
5:54 PM,68.0,55.0,63,30.21,10.0,North,19.6,28.8,N/A,,Mostly Cloudy,350,2012-09-13 22:54:00
6:54 PM,64.0,53.1,67,30.23,10.0,North,12.7,-,N/A,,Mostly Cloudy,360,2012-09-13 23:54:00
7:54 PM,62.1,53.1,72,30.25,10.0,North,16.1,-,N/A,,Partly Cloudy,350,2012-09-14 00:54:00
8:54 PM,61.0,53.1,75,30.27,10.0,NNE,11.5,20.7,N/A,,Mostly Cloudy,20,2012-09-14 01:54:00
9:54 PM,61.0,53.1,75,30.28,10.0,North,11.5,-,N/A,,Mostly Cloudy,350,2012-09-14 02:54:00
10:54 PM,61.0,54.0,78,30.29,10.0,NNE,10.4,-,N/A,,Overcast,20,2012-09-14 03:54:00
11:54 PM,59.0,55.0,87,30.28,10.0,North,10.4,-,N/A,,Overcast,360,2012-09-14 04:54:00